[[{"header":{"parameterUnit":"m.s-1","parameterCategory":1,"la1":30.2991,"la2":30.254,"lo1":-89.0895,"lo2":-89.0444,"dy":0.0017,"dx":0.0017,"nx":28,"ny":28,"refTime":"2025-01-06T03:00:00:Z","depth":0,"parameterNumber":2,"parameterNumberName":"U-component_of_WINDS"},"data":[0,0,0,0,0,0,0,0,0,0,0,0,0,0,0,0,0,0,0,0,0,0,0,0,0,0,0,0,0,0,0,0,0,0,0,0,0,0,0,0,0,0,0,0,0,0,0,0,0,0,0,0,0,0,0,0,0,0,5.6034,5.6035,0,5.6113,5.6114,5.6115,5.6059,5.6056,5.6054,5.6051,5.613,5.6134,5.6139,0,0,0,0,0,0,0,0,0,0,0,0,0,5.5836,5.584,5.6034,5.6035,5.6036,5.6113,5.6114,5.6115,5.6059,5.6056,5.6053,5.605,5.6128,5.6134,5.6139,0,0,0,0,0,0,0,0,0,0,0,0,0,5.5919,5.5841,5.6034,5.6018,5.6017,5.6113,5.6114,5.6115,5.606,5.6056,5.6052,5.6049,5.6127,5.6133,5.614,5.6255,0,0,5.616,5.6163,0,0,0,0,0,0,0,0,5.5914,5.5926,5.6019,5.6019,5.6018,5.6072,5.6073,5.6162,5.6061,5.6044,5.6051,5.6047,5.6114,5.6121,5.6144,5.6259,5.6262,5.616,5.6164,5.6167,5.6169,0,0,0,0,0,0,0,5.5909,5.5923,5.6065,5.6021,5.602,5.6006,5.6014,5.6089,5.6098,5.6045,5.6041,5.6051,5.6113,5.6138,5.6145,5.6263,5.616,5.6166,5.617,5.6173,5.6479,5.6483,0,0,0,0,0,0,5.5905,5.5918,5.6063,5.6068,5.5956,5.6013,5.6022,5.6059,5.6097,5.61,5.6054,5.6048,5.6128,5.6138,5.6148,5.6287,5.6167,5.6173,5.6177,5.6475,5.648,5.6485,0,0,0,0,0,0,5.59,5.5918,5.606,5.5992,5.6009,5.602,5.6063,5.6062,5.6087,5.6105,5.6106,5.6078,5.6126,5.6139,5.623,5.6289,5.6176,5.6182,5.647,5.6477,5.6482,5.6565,0,0,0,0,0,0,5.5895,5.5917,5.5961,5.5993,5.6013,5.614,5.6066,5.6067,5.6099,5.6092,5.6127,5.613,5.6124,5.622,5.6236,5.6296,5.6187,5.6465,5.6473,5.648,5.6557,5.6574,5.6588,0,0,0,0,0,5.5888,5.598,5.5963,5.5981,5.6068,5.6144,5.6155,5.6147,5.6104,5.6148,5.616,5.6129,5.628,5.623,5.6247,5.631,5.6461,5.6471,5.648,5.6551,5.6571,5.6587,0,0,0,0,0,0,5.5952,5.5984,5.5965,5.607,5.6105,5.6134,5.6189,5.6168,5.6214,5.6206,5.6193,5.6202,5.6297,5.6313,5.6256,5.6425,5.6364,5.6377,5.6412,5.6431,5.6445,5.644,5.6193,0,0,0,0,0,5.5979,5.6038,5.6062,5.6153,5.6171,5.6178,5.621,5.6202,5.6236,5.625,5.6268,5.6303,5.6359,5.6395,5.6447,5.656,5.6567,5.6612,5.6627,5.6639,5.6651,5.6714,5.6734,5.6515,5.6515,5.6515,0,0,5.6033,5.6058,5.6096,5.6166,5.6192,5.6254,5.619,5.6258,5.6304,5.626,5.6348,5.6363,5.6401,5.6504,5.655,5.6519,5.6713,5.6651,5.6661,5.6666,5.6725,5.6746,5.6764,5.6522,5.6521,5.652,0,0,5.6166,5.619,5.6269,5.6297,5.6337,5.6341,5.6361,5.6394,5.6403,5.6491,5.646,5.6515,5.661,5.6639,5.6667,5.6814,5.6787,5.6831,5.691,5.6971,5.6988,5.7003,5.7057,5.7076,5.6842,5.6843,5.6843,0,5.6228,5.6321,5.6312,5.6383,5.6415,5.6381,5.6461,5.6488,5.6544,5.6567,5.6532,5.6654,5.6676,5.6787,5.6823,5.6846,5.6868,5.6826,5.6986,5.7002,5.7016,5.7067,5.7087,5.6848,5.6847,5.6847,5.6846,0,5.6397,5.6462,5.6521,5.6577,5.6616,5.6691,5.6694,5.6735,5.6724,5.6732,5.6823,5.685,5.6908,5.6933,5.6922,5.7043,5.7023,5.6988,5.6926,5.7042,5.709,5.7109,5.6855,5.6853,5.6852,5.685,0,0,5.657,5.6622,5.6644,5.667,5.6713,5.6763,5.6838,5.6896,5.6932,5.6971,5.7034,5.7118,5.7086,5.7117,5.7109,5.7163,5.728,5.7122,5.7122,5.7151,5.7416,5.7443,5.7466,5.7263,5.7266,5.7269,5.7414,0,5.6705,5.6835,5.6831,5.6953,5.7014,5.6983,5.7048,5.7082,5.7093,5.7146,5.7157,5.7217,5.717,5.7189,5.7241,5.7255,5.7333,5.7244,5.7321,5.7324,5.7313,5.749,5.7518,5.7652,5.7432,5.7435,5.7437,0,5.6879,5.6927,5.7056,5.7093,5.7118,5.7177,5.7231,5.7282,5.732,5.7324,5.7361,5.7345,5.7422,5.7358,5.7464,5.7404,5.7435,5.7447,5.7452,5.7459,5.7388,5.7502,5.7695,5.7716,5.7466,5.7464,5.7462,0,5.6994,5.709,5.718,5.7203,5.7248,5.7291,5.7311,5.7346,5.7382,5.743,5.7453,5.7508,5.7539,5.7582,5.7582,5.7536,5.769,5.7626,5.7695,5.7696,5.7729,5.7727,5.793,5.7749,5.7749,5.7748,5.7748,0,5.7145,5.7226,5.7233,5.7288,5.7377,5.7372,5.7461,5.7477,5.7509,5.7567,5.7544,5.7599,5.7596,5.7652,5.7652,5.7741,5.7754,5.776,5.7759,5.7762,5.7762,5.7783,5.7774,5.7753,5.7752,5.7751,5.775,0,5.7288,5.7296,5.7392,5.7428,5.7439,5.7504,5.7534,5.7587,5.7596,5.7671,5.7688,5.7702,5.7768,5.7772,5.7847,5.7847,5.7955,5.7944,5.7942,5.794,5.801,5.8004,5.8234,5.8265,5.8063,5.8065,5.8067,0,5.7384,5.7446,5.7489,5.7527,5.7551,5.7612,5.7649,5.7647,5.7687,5.7737,5.7784,5.7848,5.7898,5.8004,5.8021,5.8079,5.8069,5.8146,5.8077,5.808,5.8071,5.8068,5.8075,5.8159,5.8161,5.8163,5.8165,0,5.7555,5.7557,5.7611,5.7669,5.7715,5.776,5.7801,5.7834,5.7837,5.7883,5.795,5.799,5.8067,5.8131,5.8188,5.8209,5.8188,5.8186,5.8206,5.8209,5.8207,5.821,5.7979,5.8181,5.8179,5.8178,5.8177,5.8176,5.7678,5.7732,5.7771,5.7834,5.7866,5.7906,5.7959,5.7975,5.8032,5.8096,5.8091,5.8166,5.8205,5.828,5.8306,5.8365,5.8338,5.8366,5.8373,5.838,5.8388,5.8198,5.8375,5.8374,5.8374,5.8373,5.8373,0,5.7848,5.7873,5.7931,5.7991,5.8041,5.8018,5.8064,5.8107,5.8173,5.8212,5.8263,5.8342,5.8404,5.8427,5.8488,5.8531,5.8523,5.8547,5.8544,5.8549,5.8407,5.8385,5.8553,5.8553,5.8552,5.8552,5.8552,5.8552,5.7943,5.8033,5.804,5.8147,5.8171,5.8245,5.8273,5.8311,5.8342,5.8431,5.8483,5.8498,5.8531,5.8595,5.8651,5.8657,5.868,5.8709,5.871,5.8577,5.8559,5.8542,5.8521,5.8714,5.8714,5.8847,5.8849,5.885]},{"header":{"parameterUnit":"m.s-1","parameterCategory":1,"la1":30.2991,"la2":30.254,"lo1":-89.0895,"lo2":-89.0444,"dy":0.0017,"dx":0.0017,"nx":28,"ny":28,"refTime":"2025-01-06T03:00:00:Z","depth":0,"parameterNumber":3,"parameterNumberName":"V-component_of_WINDS"},"data":[0,0,0,0,0,0,0,0,0,0,0,0,0,0,0,0,0,0,0,0,0,0,0,0,0,0,0,0,0,0,0,0,0,0,0,0,0,0,0,0,0,0,0,0,0,0,0,0,0,0,0,0,0,0,0,0,0,0,-8.1205,-8.1207,0,-8.1395,-8.1397,-8.1399,-8.1388,-8.1385,-8.1382,-8.138,-8.1569,-8.1576,-8.1584,0,0,0,0,0,0,0,0,0,0,0,0,0,-8.083,-8.0837,-8.1205,-8.1207,-8.121,-8.1395,-8.1397,-8.14,-8.1388,-8.1385,-8.1382,-8.1379,-8.1566,-8.1575,-8.1584,0,0,0,0,0,0,0,0,0,0,0,0,0,-8.1003,-8.0839,-8.1205,-8.1227,-8.123,-8.1394,-8.1397,-8.14,-8.1389,-8.1385,-8.1381,-8.1377,-8.1563,-8.1574,-8.1586,-8.1738,0,0,-8.162,-8.1625,0,0,0,0,0,0,0,0,-8.0993,-8.1017,-8.1221,-8.1225,-8.123,-8.1364,-8.1334,-8.1513,-8.139,-8.1329,-8.138,-8.1375,-8.1504,-8.152,-8.1564,-8.1747,-8.1755,-8.1621,-8.1628,-8.1633,-8.1636,0,0,0,0,0,0,0,-8.0981,-8.1009,-8.128,-8.1224,-8.1229,-8.1226,-8.1246,-8.1368,-8.1437,-8.1334,-8.1333,-8.1356,-8.1505,-8.1553,-8.1568,-8.1758,-8.1621,-8.1631,-8.1638,-8.1643,-8.2077,-8.2082,0,0,0,0,0,0,-8.0965,-8.0999,-8.1274,-8.1286,-8.1099,-8.1236,-8.1258,-8.1325,-8.1435,-8.1448,-8.136,-8.1355,-8.1536,-8.1555,-8.1575,-8.1762,-8.1633,-8.1644,-8.165,-8.2073,-8.2079,-8.2084,0,0,0,0,0,0,-8.0957,-8.099,-8.1266,-8.1142,-8.1177,-8.1247,-8.1321,-8.1331,-8.1379,-8.1455,-8.1467,-8.1396,-8.1533,-8.1559,-8.1699,-8.1768,-8.1649,-8.1659,-8.2067,-8.2075,-8.2081,-8.2137,0,0,0,0,0,0,-8.0946,-8.0987,-8.1046,-8.1144,-8.1184,-8.1388,-8.1326,-8.1337,-8.1399,-8.1395,-8.1492,-8.1505,-8.1532,-8.1682,-8.171,-8.1782,-8.1668,-8.2061,-8.207,-8.2079,-8.2129,-8.2145,-8.2159,0,0,0,0,0,-8.0933,-8.1053,-8.1049,-8.1083,-8.126,-8.1392,-8.1415,-8.1445,-8.1405,-8.1465,-8.1514,-8.1501,-8.1756,-8.1696,-8.1728,-8.1804,-8.2057,-8.2068,-8.2078,-8.2122,-8.2142,-8.2158,0,0,0,0,0,0,-8.0959,-8.1066,-8.1063,-8.1219,-8.1297,-8.139,-8.1466,-8.1465,-8.1554,-8.1546,-8.1579,-8.1601,-8.1742,-8.1787,-8.1718,-8.1959,-8.1901,-8.1919,-8.1924,-8.1943,-8.1957,-8.1943,-8.1678,0,0,0,0,0,-8.0984,-8.1084,-8.1171,-8.1299,-8.1339,-8.1396,-8.1455,-8.1472,-8.1553,-8.1585,-8.1645,-8.1723,-8.1821,-8.1884,-8.1978,-8.2136,-8.2157,-8.2204,-8.2219,-8.223,-8.2245,-8.2333,-8.2355,-8.2118,-8.2118,-8.2118,0,0,-8.1034,-8.1105,-8.1165,-8.1306,-8.1369,-8.1471,-8.1424,-8.1533,-8.1608,-8.1601,-8.1738,-8.1784,-8.1873,-8.2023,-8.2092,-8.2065,-8.2315,-8.2244,-8.2253,-8.2261,-8.2346,-8.2368,-8.2388,-8.2126,-8.2124,-8.2123,0,0,-8.1178,-8.1242,-8.1357,-8.1421,-8.1517,-8.1555,-8.1582,-8.1677,-8.1708,-8.1846,-8.1843,-8.1933,-8.2101,-8.2165,-8.222,-8.2391,-8.2383,-8.242,-8.2497,-8.2582,-8.2601,-8.2617,-8.2679,-8.2701,-8.2435,-8.2435,-8.2435,0,-8.1229,-8.1383,-8.1415,-8.1527,-8.1589,-8.159,-8.1706,-8.1766,-8.1887,-8.193,-8.1899,-8.2111,-8.2171,-8.2336,-8.2378,-8.2422,-8.2455,-8.2409,-8.2596,-8.2613,-8.2629,-8.2688,-8.2711,-8.2439,-8.2438,-8.2438,-8.2438,0,-8.144,-8.1548,-8.1629,-8.1749,-8.182,-8.1933,-8.1982,-8.205,-8.2061,-8.2102,-8.2243,-8.2315,-8.2425,-8.2465,-8.2476,-8.2633,-8.2613,-8.2589,-8.2532,-8.2655,-8.2711,-8.2734,-8.2445,-8.2443,-8.2442,-8.2441,0,0,-8.1605,-8.1743,-8.1773,-8.1828,-8.1935,-8.2018,-8.2131,-8.224,-8.2298,-8.2382,-8.2478,-8.2621,-8.26,-8.2662,-8.268,-8.2755,-8.2887,-8.2721,-8.2724,-8.275,-8.3064,-8.3082,-8.3108,-8.2883,-8.2887,-8.2891,-8.3057,0,-8.1761,-8.1964,-8.1997,-8.2174,-8.2274,-8.2277,-8.2376,-8.2452,-8.2493,-8.2583,-8.2628,-8.2729,-8.2693,-8.2731,-8.2805,-8.2855,-8.295,-8.2843,-8.2971,-8.2975,-8.2949,-8.3137,-8.3156,-8.331,-8.3079,-8.3083,-8.3086,0,-8.1969,-8.2061,-8.2249,-8.2345,-8.2388,-8.2476,-8.258,-8.2666,-8.2752,-8.2777,-8.2848,-8.2858,-8.2975,-8.2913,-8.3075,-8.3002,-8.3056,-8.3088,-8.3095,-8.3108,-8.3038,-8.3155,-8.336,-8.3383,-8.312,-8.3118,-8.3115,0,-8.2071,-8.2242,-8.2377,-8.2424,-8.2538,-8.26,-8.2651,-8.2733,-8.2797,-8.2887,-8.2929,-8.3031,-8.3087,-8.3165,-8.3203,-8.3154,-8.3362,-8.3303,-8.3386,-8.3385,-8.3429,-8.3425,-8.3645,-8.3464,-8.3463,-8.3463,-8.3462,0,-8.2242,-8.2356,-8.2425,-8.2508,-8.2637,-8.2674,-8.28,-8.2848,-8.2922,-8.3014,-8.3022,-8.3108,-8.3152,-8.3245,-8.3274,-8.3404,-8.3429,-8.3452,-8.3458,-8.3451,-8.3449,-8.3487,-8.3477,-8.3469,-8.3468,-8.3466,-8.3465,0,-8.2377,-8.2428,-8.2575,-8.2672,-8.27,-8.279,-8.2873,-8.2953,-8.2995,-8.3111,-8.3141,-8.3206,-8.3315,-8.3361,-8.3494,-8.3514,-8.3663,-8.3661,-8.3634,-8.3637,-8.3716,-8.3708,-8.3968,-8.4004,-8.3799,-8.3801,-8.3803,0,-8.2483,-8.2572,-8.2679,-8.2742,-8.2795,-8.2896,-8.2963,-8.3003,-8.3071,-8.3178,-8.3245,-8.3355,-8.3445,-8.3619,-8.3678,-8.378,-8.3781,-8.3865,-8.3796,-8.3787,-8.3783,-8.3777,-8.3786,-8.3877,-8.3879,-8.3881,-8.3882,0,-8.2665,-8.2686,-8.2782,-8.2888,-8.2967,-8.3052,-8.3134,-8.3185,-8.3238,-8.3314,-8.3428,-8.3498,-8.3635,-8.3744,-8.385,-8.3901,-8.3901,-8.3904,-8.3928,-8.3922,-8.3903,-8.3915,-8.3669,-8.3897,-8.3896,-8.3895,-8.3894,-8.3893,-8.2789,-8.2869,-8.2958,-8.3065,-8.3132,-8.3209,-8.329,-8.3343,-8.3439,-8.3555,-8.3573,-8.3694,-8.3779,-8.3922,-8.3977,-8.4071,-8.405,-8.4085,-8.4094,-8.4102,-8.4108,-8.3889,-8.409,-8.409,-8.409,-8.4089,-8.4089,0,-8.2972,-8.303,-8.3128,-8.3245,-8.3329,-8.3324,-8.3415,-8.3486,-8.3593,-8.3673,-8.3762,-8.3893,-8.3999,-8.4067,-8.4174,-8.4236,-8.4239,-8.4263,-8.4259,-8.427,-8.412,-8.4089,-8.4259,-8.4259,-8.4259,-8.4259,-8.4259,-8.4259,-8.3077,-8.3212,-8.3244,-8.3412,-8.3469,-8.3589,-8.3642,-8.3714,-8.3778,-8.3924,-8.4013,-8.4057,-8.4133,-8.4246,-8.4343,-8.436,-8.4399,-8.4424,-8.444,-8.4298,-8.4281,-8.4264,-8.4234,-8.4433,-8.4433,-8.4582,-8.4584,-8.4585]}]]